Weather History for Falls City, NE

Change the Weather History Date:

Tuesday, September 2, 2014

  Actual Average Record
Temperature  
Mean Temperature 72 °F -  
Max Temperature 86 °F 86 °F 109 °F (2011)
Min Temperature 60 °F 61 °F 46 °F (1949)
Cooling Degree Days 7    
Growing Degree Days 22 (Base 50)    
Moisture  
Dew Point 62 °F    
Average Humidity 74    
Maximum Humidity 97    
Minimum Humidity 44    
Precipitation  
Precipitation 0.00 in - - ()
Sea Level Pressure  
Sea Level Pressure 29.94 in    
Wind  
Wind Speed 4 mph (NNW)    
Max Wind Speed 8 mph    
Max Gust Speed -    
Visibility 10 miles    
Events      
Averages and records for this station are not official NWS values.
T = Trace of Precipitation, MM = Missing Value Source: NWS Daily Summary

Daily Weather History Graph

Daily Weather History Graph

Search for Another Location

Airport:

Trip Planner

Search our weather history database for the weather conditions in past years. The results will help you decide how hot, cold, wet, or windy it might be!

Date:

Astronomy

Sep. 02, 2014 Rise Set
Actual Time 6:51 AM CDT 7:52 PM CDT
Civil Twilight 6:23 AM CDT 8:19 PM CDT
Nautical Twilight 5:50 AM CDT 8:52 PM CDT
Astronomical Twilight 5:15 AM CDT 9:27 PM CDT
Moon 2:36 PM CDT (9/2) No Moon Set
Length of Visible Light 13h 56m
Length of Day
13h 01m
First Quarter, 53% of the Moon is Illuminated
Sep 2
First Quarter
Sep 8
Full
Sep 15
Last Quarter
Sep 24
New
Oct 1
First Quarter

Hourly Weather History & Observations

Time (CDT) Temp. Heat Index Dew Point Humidity Pressure Visibility Wind Dir Wind Speed Gust Speed Precip Events Conditions
12:53 AM 63.0 °F - 62.1 °F 97% 29.90 in 10.0 mi Calm Calm - N/A   Clear
1:53 AM 63.0 °F - 62.1 °F 97% 29.94 in 10.0 mi NW 5.8 mph - N/A   Clear
2:53 AM 63.0 °F - 61.0 °F 93% 29.92 in 10.0 mi West 3.5 mph - N/A   Clear
3:53 AM 61.0 °F - 59.0 °F 93% 29.89 in 10.0 mi Calm Calm - N/A   Clear
4:53 AM 61.0 °F - 60.1 °F 97% 29.90 in 10.0 mi SW 5.8 mph - N/A   Clear
5:53 AM 60.1 °F - 59.0 °F 96% 29.92 in 10.0 mi NNW 5.8 mph - N/A   Clear
6:53 AM 60.1 °F - 59.0 °F 96% 29.94 in 10.0 mi NNW 6.9 mph - N/A   Clear
7:53 AM 61.0 °F - 60.1 °F 97% 29.96 in 10.0 mi NW 3.5 mph - N/A   Clear
8:53 AM 64.9 °F - 62.1 °F 90% 29.97 in 10.0 mi NW 5.8 mph - N/A   Clear
9:53 AM 71.1 °F - 63.0 °F 75% 29.97 in 10.0 mi Variable 4.6 mph - N/A   Clear
10:53 AM 75.9 °F - 60.1 °F 58% 29.97 in 10.0 mi North 3.5 mph - N/A   Clear
11:53 AM 79.0 °F - 59.0 °F 50% 29.98 in 10.0 mi NW 4.6 mph - N/A   Clear
12:53 PM 80.1 °F 81.1 °F 61.0 °F 52% 29.99 in 10.0 mi Variable 4.6 mph - N/A   Clear
1:53 PM 82.0 °F 82.4 °F 60.1 °F 47% 29.98 in 10.0 mi WNW 8.1 mph - N/A   Clear
2:53 PM 84.0 °F 84.4 °F 61.0 °F 46% 29.97 in 10.0 mi Variable 6.9 mph - N/A   Clear
3:53 PM 84.0 °F 84.0 °F 60.1 °F 44% 29.94 in 10.0 mi South 3.5 mph - N/A   Clear
4:53 PM 84.9 °F 85.0 °F 61.0 °F 44% 29.91 in 10.0 mi NW 4.6 mph - N/A   Clear
5:53 PM 84.9 °F 85.0 °F 61.0 °F 44% 29.90 in 10.0 mi NNW 3.5 mph - N/A   Clear
6:53 PM 82.0 °F 84.1 °F 66.0 °F 58% 29.90 in 9.0 mi East 4.6 mph - N/A   Clear
7:53 PM 75.9 °F - 64.0 °F 67% 29.91 in 10.0 mi East 4.6 mph - N/A   Clear
8:53 PM 72.0 °F - 64.0 °F 76% 29.92 in 10.0 mi East 3.5 mph - N/A   Clear
9:53 PM 69.8 °F - 64.4 °F 83% 29.95 in 10.0 mi SE 5.8 mph - N/A   Clear
10:53 PM 66.9 °F - 64.0 °F 90% 29.92 in 10.0 mi ESE 3.5 mph - N/A   Clear
11:53 PM 66.9 °F - 64.0 °F 90% 29.93 in 10.0 mi SE 3.5 mph - N/A   Clear